AirNav   Everest Fuels
 
 816 users online  

N05 Hackettstown Airport
Hackettstown, New Jersey, USA

GOING TO HACKETTSTOWN?


FAA INFORMATION EFFECTIVE 21 MAY 2020

Location

FAA Identifier: N05
Lat/Long: 40-49-12.3570N 074-51-18.6020W
40-49.205950N 074-51.310033W
40.8200992,-74.8551672
(estimated)
Elevation: 670 ft. / 204 m (estimated)
Variation: 12W (1985)
From city: 3 miles SW of HACKETTSTOWN, NJ
Time zone: UTC -4 (UTC -5 during Standard Time)
Zip code: 07840

Airport Operations

Airport use: Open to the public
Activation date: 05/1942
Control tower: no
ARTCC: NEW YORK CENTER
FSS: MILLVILLE FLIGHT SERVICE STATION
NOTAMs facility: MIV (NOTAM-D service available)
Attendance: DAWN-DUSK
Wind indicator: yes
Segmented circle: no

Airport Communications

CTAF: 122.9
WX ASOS at 12N (12 nm NE): PHONE 917-786-7221
WX ASOS at SMQ (14 nm SE): 120.6 (908-722-2139)
WX AWOS-3 at N40 (16 nm S): 121.725

Nearby radio navigation aids

VOR radial/distance  VOR name  Freq  Var
BWZr322/2.0BROADWAY VOR/DME114.2011W
STWr188/10.6STILLWATER VOR/DME109.6011W
SBJr350/15.1SOLBERG VOR/DME112.9010W
SAXr235/20.7SPARTA VORTAC115.7011W
FJCr088/27.8ALLENTOWN VORTAC117.5010W
ARDr014/34.1YARDLEY VOR/DME108.2010W
TEBr278/36.0TETERBORO VOR/DME108.4011W
HUOr210/37.3HUGUENOT VOR/DME116.1011W

 
NDB name  Hdg/Dist  Freq  Var  ID
CHATHAM297/19.925413WCAT -.-. .- -

Airport Services

Fuel available: 100LL
Parking: hangars and tiedowns
Airframe service: MINOR
Powerplant service: MINOR
Bottled oxygen: NONE
Bulk oxygen: NONE

Runway Information

Runway 5/23

Dimensions: 2200 x 50 ft. / 671 x 15 m
Surface: asphalt, in good condition
Weight bearing capacity: 
Single wheel: 5.0
RUNWAY 5  RUNWAY 23
Traffic pattern: leftleft
Markings: nonenone
Obstructions: 27 ft. tree, 227 ft. from runway, 63 ft. right of centerline, 1:1 slope to clear
RWY 05 +51 FT TREES, 117 FT FM THLD,96 FT R.
9 ft. tree, 208 ft. from runway, 51 ft. left of centerline
RY 23 ROAD WITH 15 FT VEHICLES 45 FEET FROM RUNWAY END.

Airport Ownership and Management from official FAA records

Ownership: Privately-owned
Owner: DONALD SCHWANDA
115 AIRPORT RD
HACKETTSTOWN, NJ 07840
Phone 908-852-4664
Manager: DONALD AND JENNIFER SCHWANDA
115 AIRPORT RD
HACKETTSTOWN, NJ 07840
Phone 908-852-4664

Airport Operational Statistics

Aircraft based on the field: 24
Single engine airplanes: 24
    
Aircraft operations: avg 57/day *
79% local general aviation
21% transient general aviation
* for 12-month period ending 30 April 2019

Additional Remarks

FOR CD CTC NEW YORK APCH AT 800-645-3206.
DEER & BIRDS ON & INVOF APRT.

Instrument Procedures

There are no published instrument procedures at N05.

Some nearby airports with instrument procedures:

1N7 - Blairstown Airport (11 nm NW)
12N - Aeroflex-Andover Airport (12 nm NE)
KSMQ - Somerset Airport (14 nm SE)
N51 - Solberg-Hunterdon Airport (15 nm S)
N85 - Alexandria Airport (16 nm SW)
N40 - Sky Manor Airport (16 nm S)
N43 - Braden Airpark (18 nm W)
N53 - Stroudsburg-Pocono Airport (19 nm NW)
 
Loc | Ops | Rwys | IFR | FBO | Links
Com | Nav | Svcs | Stats | Notes
Area around N05 (Hackettstown Airport)
 
Road maps at: MapQuest Bing Google
 
Aerial photo
WARNING: Photo may not be current or correct
Aerial photo of N05 (Hackettstown Airport)
Photo by Paul Kerr.
Taken late June 2009

Do you have a better or more recent aerial photo of Hackettstown Airport that you would like to share? If so, please send us your photo.

 
Sectional chart

 
Airport distance calculator
Flying to Hackettstown Airport? Find the distance to fly.

From to N05

Sunrise and sunset
Times for 31-May-2020
 Local
(UTC-4)
 Zulu
(UTC)
Morning civil twilight04:5808:58
Sunrise05:3109:31
Sunset20:2300:23
Evening civil twilight20:5600:56

Current date and time
Zulu (UTC)  31-May-2020 13:18:09
Local (UTC-4)  31-May-2020 09:18:09
 
METAR
K12N 
13nm NE 
311254Z AUTO 36006KT 14/05 A3011 RMK AO1 SLP194 T01390050
KSMQ 
15nm SE 
ASOS 120.60 908-722-2139
311253Z AUTO 34010G18KT 10SM CLR 16/04 A3009 RMK AO2 SLP190 T01560039
KMMU 
20nm E 
311245Z 36009G16KT 10SM FEW030 16/06 A3010
KFWN 
25nm NE 
311253Z AUTO VRB06KT 10SM CLR 14/05 A3011 RMK AO2 SLP196 T01390050 $
TAF
KABE 
29nm W 
311120Z 3112/0112 33009KT P6SM SKC FM311500 33012G20KT P6SM SCT060 FM010100 34006KT P6SM SKC
KTTN 
32nm S 
311120Z 3112/0112 34008KT P6SM SKC FM311500 34012G20KT P6SM SCT060 FM312300 35006KT P6SM SKC
KEWR 
32nm E 
311130Z 3112/0118 33015G23KT P6SM FEW050 FM311600 32014G20KT P6SM FEW050 FM010400 33012KT P6SM FEW080 FM010700 30007KT P6SM FEW080 FM011400 30014KT P6SM SCT040 SCT250
NOTAMs
Click for the latest NOTAMs
NOTAMs are issued by the DoD/FAA and will open in a separate window not controlled by AirNav.

 

 
 

FBO, Fuel Providers, and Aircraft Ground Support

  
 Business Name 
 
 Contact 
 
 Services / Description 
 
Fuel Prices
 
Comments
  
Hackettstown Airport 908-852-4664
no information available

If you are affiliated with Hackettstown Airport and would like to show here your services, contact info, web link, logo, and more, click here
100LL
SS $5.10 
 Updated 20-May-2020
 
   1 read write
SS=Self service
Update Fuel Prices
 

Would you like to see your business listed on this page?

 If your business provides an interesting product or service to pilots, flight crews, aircraft, or users of the Hackettstown Airport, you should consider listing it here.  To start the listing process, click on the button below
 
Add a business
 

Other Pages about Hackettstown Airport

www.hackettstownairport.com
 
Update a link
 
Copyright © AirNav, LLC. All rights reserved. Privacy Policy  Contact